Location: North Mitre
(40.7833°S, 175.4667°E)
Time: 04:33:24
(UTC+00:00)

Meteor 2-5 Rocket - Pass Details

Date: 04 August 2024
Orbit: 833 x 910 km, 81.2° (Epoch: 07 September)

Event Time Altitude Azimuth Distance (km) Brightness Sun altitude
Rises 17:01:04 0° 359° (N) 3,520 6.9 -26.6°
Reaches altitude 10° 17:03:30 10° 1° (N) 2,593 6.2 -26.1°
Maximum altitude 17:09:25 71° 83° (E) 970 4.1 -25.0°
Drops below altitude 10° 17:15:24 10° 166° (SSE) 2,627 6.4 -23.9°
Sets 17:17:54 0° 168° (SSE) 3,571 7.1 -23.4°
